TimeEDT,TemperatureF,Dew PointF,Humidity,Sea Level PressureIn,VisibilityMPH,Wind Direction,Wind SpeedMPH,Gust SpeedMPH,PrecipitationIn,Events,Conditions,WindDirDegrees,DateUTC
12:15 AM,71.6,69.8,94,30.15,7.0,Calm,Calm,-,N/A,,Mostly Cloudy,0,2013-09-10 04:15:00
12:35 AM,69.8,69.8,100,30.15,7.0,Calm,Calm,-,N/A,,Mostly Cloudy,0,2013-09-10 04:35:00
12:55 AM,69.8,68.0,94,30.15,5.0,Calm,Calm,-,N/A,,Mostly Cloudy,0,2013-09-10 04:55:00
1:15 AM,69.8,68.0,94,30.15,5.0,Calm,Calm,-,N/A,,Mostly Cloudy,0,2013-09-10 05:15:00
1:35 AM,69.8,68.0,94,30.15,1.8,Calm,Calm,-,N/A,,Mostly Cloudy,0,2013-09-10 05:35:00
1:55 AM,68.0,66.2,94,30.15,0.5,Calm,Calm,-,N/A,Fog,Fog,0,2013-09-10 05:55:00
2:15 AM,68.0,66.2,94,30.15,0.2,Calm,Calm,-,N/A,Fog,Fog,0,2013-09-10 06:15:00
2:35 AM,68.0,66.2,94,30.16,0.2,Calm,Calm,-,N/A,Fog,Fog,0,2013-09-10 06:35:00
2:55 AM,66.2,66.2,100,30.16,0.5,Calm,Calm,-,N/A,Fog,Fog,0,2013-09-10 06:55:00
3:15 AM,66.2,64.4,94,30.16,0.2,Calm,Calm,-,N/A,Fog,Fog,0,2013-09-10 07:15:00
3:35 AM,66.2,66.2,100,30.16,0.8,Calm,Calm,-,N/A,,Overcast,0,2013-09-10 07:35:00
3:55 AM,66.2,66.2,100,30.16,0.8,Calm,Calm,-,N/A,,Overcast,0,2013-09-10 07:55:00
4:15 AM,68.0,66.2,94,30.16,3.0,Calm,Calm,-,N/A,,Overcast,0,2013-09-10 08:15:00
4:35 AM,68.0,66.2,94,30.16,1.5,Calm,Calm,-,N/A,,Overcast,0,2013-09-10 08:35:00
4:55 AM,66.2,64.4,94,30.17,0.5,Calm,Calm,-,N/A,Fog,Fog,0,2013-09-10 08:55:00
5:15 AM,68.0,66.2,94,30.17,1.8,Calm,Calm,-,N/A,,Overcast,0,2013-09-10 09:15:00
5:35 AM,66.2,66.2,100,30.16,1.0,Calm,Calm,-,N/A,,Overcast,0,2013-09-10 09:35:00
5:55 AM,66.2,66.2,100,30.17,2.5,Calm,Calm,-,N/A,,Overcast,0,2013-09-10 09:55:00
6:15 AM,68.0,66.2,94,30.17,0.5,Calm,Calm,-,N/A,Fog,Fog,0,2013-09-10 10:15:00
6:35 AM,68.0,66.2,94,30.18,0.2,Calm,Calm,-,N/A,Fog,Fog,0,2013-09-10 10:35:00
6:55 AM,68.0,66.2,94,30.18,0.2,Calm,Calm,-,N/A,Fog,Fog,0,2013-09-10 10:55:00
7:15 AM,69.8,68.0,94,30.18,0.2,Calm,Calm,-,N/A,Fog,Fog,0,2013-09-10 11:15:00
7:35 AM,69.8,69.8,100,30.18,0.2,Calm,Calm,-,N/A,Fog,Fog,0,2013-09-10 11:35:00
7:55 AM,69.8,69.8,100,30.19,0.2,Calm,Calm,-,N/A,Fog,Fog,0,2013-09-10 11:55:00
8:15 AM,71.6,69.8,94,30.20,0.2,Calm,Calm,-,N/A,Fog,Fog,0,2013-09-10 12:15:00
8:35 AM,71.6,69.8,94,30.19,0.8,SSW,3.5,-,N/A,,Overcast,200,2013-09-10 12:35:00
8:55 AM,71.6,71.6,100,30.20,1.8,SSW,3.5,-,N/A,,Overcast,200,2013-09-10 12:55:00
9:15 AM,73.4,71.6,94,30.20,3.0,WSW,3.5,-,N/A,,Overcast,240,2013-09-10 13:15:00
9:35 AM,73.4,73.4,100,30.20,5.0,SSW,4.6,-,N/A,,Overcast,200,2013-09-10 13:35:00
9:55 AM,75.2,73.4,94,30.20,7.0,South,4.6,-,N/A,,Overcast,190,2013-09-10 13:55:00
10:15 AM,78.8,73.4,83,30.20,7.0,SSW,3.5,-,N/A,,Scattered Clouds,210,2013-09-10 14:15:00
10:35 AM,80.6,73.4,79,30.20,10.0,SSW,6.9,-,N/A,,Clear,210,2013-09-10 14:35:00
10:55 AM,82.4,69.8,66,30.20,10.0,SSW,5.8,-,N/A,,Clear,210,2013-09-10 14:55:00
11:15 AM,82.4,68.0,62,30.20,10.0,South,4.6,-,0.03,,Clear,180,2013-09-10 15:15:00
11:35 AM,82.4,68.0,62,30.20,-9999.0,SSW,5.8,-,0.03,,Clear,200,2013-09-10 15:35:00
11:55 AM,86.0,69.8,58,30.19,10.0,SSW,6.9,-,N/A,,Clear,200,2013-09-10 15:55:00
12:15 PM,87.8,69.8,55,30.19,10.0,South,6.9,-,N/A,,Unknown,180,2013-09-10 16:15:00
12:35 PM,87.8,68.0,52,30.18,10.0,SSW,9.2,-,N/A,,Clear,200,2013-09-10 16:35:00
12:55 PM,89.6,68.0,49,30.18,10.0,South,9.2,-,N/A,,Clear,190,2013-09-10 16:55:00
1:15 PM,89.6,66.2,46,30.18,10.0,SSW,8.1,-,N/A,,Clear,200,2013-09-10 17:15:00
1:35 PM,89.6,66.2,46,30.17,10.0,South,8.1,-,N/A,,Clear,190,2013-09-10 17:35:00
1:55 PM,89.6,66.2,46,30.17,10.0,SSW,3.5,-,N/A,,Clear,210,2013-09-10 17:55:00
2:15 PM,89.6,66.2,46,30.16,10.0,SSW,8.1,-,N/A,,Scattered Clouds,200,2013-09-10 18:15:00
2:35 PM,89.6,66.2,46,30.16,10.0,SSW,4.6,-,N/A,,Scattered Clouds,200,2013-09-10 18:35:00
2:55 PM,91.4,66.2,43,30.15,10.0,South,8.1,-,N/A,,Scattered Clouds,190,2013-09-10 18:55:00
3:15 PM,91.4,66.2,43,30.15,10.0,South,9.2,-,N/A,,Clear,180,2013-09-10 19:15:00
3:35 PM,91.4,64.4,41,30.14,10.0,WSW,5.8,9.2,N/A,,Clear,240,2013-09-10 19:35:00
3:55 PM,91.4,64.4,41,30.13,10.0,SW,5.8,-,N/A,,Clear,230,2013-09-10 19:55:00
4:15 PM,91.4,64.4,41,30.13,10.0,South,8.1,-,N/A,,Clear,190,2013-09-10 20:15:00
4:35 PM,91.4,64.4,41,30.12,10.0,South,8.1,-,N/A,,Clear,180,2013-09-10 20:35:00
4:55 PM,91.4,64.4,41,30.12,10.0,South,9.2,-,N/A,,Clear,190,2013-09-10 20:55:00
5:15 PM,91.4,64.4,41,30.12,10.0,SSW,8.1,-,N/A,,Clear,200,2013-09-10 21:15:00
5:35 PM,89.6,64.4,43,30.12,10.0,SW,5.8,-,N/A,,Clear,220,2013-09-10 21:35:00
5:55 PM,89.6,64.4,43,30.12,10.0,SSW,5.8,-,N/A,,Clear,210,2013-09-10 21:55:00
6:15 PM,89.6,66.2,46,30.12,10.0,SSW,4.6,-,N/A,,Clear,210,2013-09-10 22:15:00
6:35 PM,87.8,68.0,52,30.12,10.0,Calm,Calm,-,N/A,,Clear,0,2013-09-10 22:35:00
6:55 PM,84.2,69.8,62,30.12,10.0,Calm,Calm,-,N/A,,Clear,0,2013-09-10 22:55:00
7:15 PM,84.2,69.8,62,30.12,10.0,Calm,Calm,-,N/A,,Clear,0,2013-09-10 23:15:00
7:35 PM,82.4,69.8,66,30.12,10.0,Calm,Calm,-,N/A,,Clear,0,2013-09-10 23:35:00
7:55 PM,82.4,69.8,66,30.13,10.0,Calm,Calm,-,N/A,,Clear,0,2013-09-10 23:55:00
8:15 PM,80.6,69.8,70,30.14,10.0,Calm,Calm,-,N/A,,Clear,0,2013-09-11 00:15:00
8:35 PM,78.8,71.6,78,30.14,10.0,Calm,Calm,-,N/A,,Clear,0,2013-09-11 00:35:00
8:55 PM,78.8,71.6,78,30.15,10.0,Calm,Calm,-,N/A,,Clear,0,2013-09-11 00:55:00
9:15 PM,77.0,73.4,89,30.16,10.0,Calm,Calm,-,N/A,,Clear,0,2013-09-11 01:15:00
9:35 PM,78.8,73.4,83,30.17,10.0,Calm,Calm,-,N/A,,Clear,0,2013-09-11 01:35:00
9:55 PM,77.0,73.4,89,30.18,10.0,Calm,Calm,-,N/A,,Clear,0,2013-09-11 01:55:00
10:15 PM,75.2,73.4,94,30.18,10.0,SW,3.5,-,N/A,,Clear,230,2013-09-11 02:15:00
10:35 PM,75.2,73.4,94,30.18,10.0,Calm,Calm,-,N/A,,Clear,0,2013-09-11 02:35:00
10:55 PM,73.4,71.6,94,30.18,7.0,Calm,Calm,-,N/A,,Clear,0,2013-09-11 02:55:00
11:15 PM,75.2,73.4,94,30.18,10.0,Calm,Calm,-,N/A,,Clear,0,2013-09-11 03:15:00
11:35 PM,75.2,71.6,89,-9999,7.0,SSW,3.5,-,N/A,,Clear,210,2013-09-11 03:35:00
11:55 PM,73.4,71.6,94,30.18,7.0,Calm,Calm,-,N/A,,Clear,0,2013-09-11 03:55:00